Tracking 29777 objects as of 5-Oct-2024
HD Live streaming from Space Station
objects crossing your sky now

STARLINK-30370

Track STARLINK-30370 now!
10-day predictions
STARLINK-30370 is classified as:


NORAD ID: 57751
Int'l Code: 2023-131V
Perigee: 565.4 km
Apogee: 566.9 km
Inclination: 43.0 °
Period: 95.8 minutes
Semi major axis: 6937 km
RCS: Unknown
Launch date: September 1, 2023
Source: United States (US)
Launch site: AIR FORCE EASTERN TEST RANGE (AFETR)
Your satellite tracking list
Your tracking list is empty




NASA's NSSDC Master Catalog

Two Line Element Set (TLE):
1 57751U 23131V   24278.84728818  .00003027  00000-0  23899-3 0  9990
2 57751  43.0024 109.3635 0001076 275.5852  84.4867 15.02547881 61617
Source of the keplerian elements: AFSPC